Melbourne, FL

12:15 AM EDT on April 30, 2017 (GMT -0400)
Melbourne International

Weather History for KMLB - February, 2014

Change the Weather History Date:

Monday, February 10, 2014

  Actual Average Record
Temperature  
Mean Temperature 63 °F 62 °F  
Max Temperature 74 °F 73 °F 86 °F (1986)
Min Temperature 52 °F 51 °F 33 °F (1970)
Degree Days  
Heating Degree Days 2 5  
Month to date heating degree days 7 50  
Since 1 July heating degree days 253 419  
Cooling Degree Days 0 2  
Month to date cooling degree days 49 20  
Year to date cooling degree days 106 64  
Growing Degree Days 13 (Base 50)    
Moisture  
Dew Point 53 °F    
Average Humidity 67    
Maximum Humidity 93    
Minimum Humidity 41    
Precipitation  
Precipitation 0.00 in 0.09 in 0.61 in (1983)
Month to date precipitation 0.20 0.87  
Year to date precipitation 5.98 3.14  
Sea Level Pressure  
Sea Level Pressure 30.08 in    
Wind  
Wind Speed 7 mph (North)    
Max Wind Speed 15 mph    
Max Gust Speed 20 mph    
Visibility 10 miles    
Events      
T = Trace of Precipitation, MM = Missing Value Source: NWS Daily Summary

Daily Weather History Graph

Daily Weather History Graph

Search for Another Location

Airport or City:

Trip Planner

Search our weather history database for the weather conditions in past years. The results will help you decide how hot, cold, wet, or windy it might be!

Date:

Astronomy

Feb. 10, 2014 Rise Set
Actual Time 7:04 AM EST 6:09 PM EST
Civil Twilight 6:39 AM EST 6:34 PM EST
Nautical Twilight 6:12 AM EST 7:01 PM EST
Astronomical Twilight 5:44 AM EST 7:29 PM EST
Moon 2:45 PM EST (2/10) 3:47 AM EST (2/10)
Length of Visible Light 11h 54m
Length of Day
11h 05m
Waxing Gibbous, 84% of the Moon is Illuminated
Feb 10
Waxing Gibbous
Feb 14
Full
Feb 22
Last Quarter
Mar 1
New
Mar 8
First Quarter

Hourly Weather History & Observations

Time (EST) Temp. Dew Point Humidity Pressure Visibility Wind Dir Wind Speed Gust Speed Precip Events Conditions
12:53 AM 61.0 °F 55.0 °F 81% 30.08 in 10.0 mi NNE 6.9 mph - N/A   Clear
1:53 AM 54.0 °F 52.0 °F 93% 30.07 in 10.0 mi NW 4.6 mph - N/A   Clear
2:53 AM 53.1 °F 52.0 °F 96% 30.06 in 10.0 mi NW 4.6 mph - N/A   Clear
3:53 AM 53.1 °F 52.0 °F 96% 30.06 in 10.0 mi WNW 4.6 mph - N/A   Clear
4:53 AM 53.1 °F 52.0 °F 96% 30.07 in 10.0 mi NW 3.5 mph - N/A   Clear
5:53 AM 54.0 °F 52.0 °F 93% 30.08 in 10.0 mi NNW 5.8 mph - N/A   Clear
6:53 AM 53.1 °F 52.0 °F 96% 30.10 in 10.0 mi NNW 3.5 mph - N/A   Clear
7:53 AM 57.9 °F 55.0 °F 90% 30.11 in 10.0 mi NNW 4.6 mph - N/A   Clear
8:53 AM 66.0 °F 55.0 °F 68% 30.11 in 10.0 mi North 10.4 mph - N/A   Clear
9:53 AM 70.0 °F 52.0 °F 53% 30.12 in 10.0 mi North 10.4 mph - N/A   Clear
10:53 AM 72.0 °F 51.1 °F 48% 30.12 in 10.0 mi NNE 9.2 mph - N/A   Clear
11:53 AM 73.0 °F 48.9 °F 42% 30.11 in 10.0 mi NNE 11.5 mph - N/A   Clear
12:53 PM 73.0 °F 52.0 °F 48% 30.08 in 10.0 mi NE 12.7 mph - N/A   Scattered Clouds
1:53 PM 73.9 °F 52.0 °F 46% 30.05 in 10.0 mi NNE 12.7 mph - N/A   Clear
2:53 PM 72.0 °F 52.0 °F 49% 30.04 in 10.0 mi NE 12.7 mph - N/A   Clear
3:53 PM 71.1 °F 51.1 °F 49% 30.04 in 10.0 mi NE 11.5 mph - N/A   Clear
4:53 PM 70.0 °F 51.1 °F 51% 30.05 in 10.0 mi NE 11.5 mph - N/A   Clear
5:53 PM 66.9 °F 51.1 °F 57% 30.06 in 10.0 mi NE 10.4 mph - N/A   Clear
6:53 PM 64.0 °F 53.1 °F 67% 30.07 in 10.0 mi NNE 5.8 mph - N/A   Clear
7:53 PM 63.0 °F 53.1 °F 70% 30.08 in 10.0 mi NNE 5.8 mph - N/A   Clear
8:53 PM 63.0 °F 55.0 °F 75% 30.08 in 10.0 mi NNE 5.8 mph - N/A   Clear
9:53 PM 60.1 °F 55.0 °F 83% 30.09 in 10.0 mi North 3.5 mph - N/A   Clear
10:53 PM 57.9 °F 54.0 °F 87% 30.09 in 10.0 mi Calm Calm - N/A   Clear
11:53 PM 57.0 °F 54.0 °F 89% 30.08 in 10.0 mi North 3.5 mph - N/A   Clear